Wetterdaten: Samstag, 11.01.2014
Datum Zeit Temperatur Luftfeuchte Luftdruck Regen Wind Richtung Richtung Taupunkt Windchill Windben
11.01.2014 00:00 1,6 C 97 % 1019,2 hPa 0,0 l/m 0,0 km/h (0 Bft) NO 45 1,2 C 1,9 C 0,0 km/h (0 Bft)
11.01.2014 00:05 1,5 C 97 % 1019,2 hPa 0,0 l/m 0,0 km/h (0 Bft) O-NO 67 1,1 C 2,0 C 0,0 km/h (0 Bft)
11.01.2014 00:10 1,5 C 97 % 1019,2 hPa 0,0 l/m 0,0 km/h (0 Bft) O-NO 67 1,1 C 1,9 C 0,0 km/h (0 Bft)
11.01.2014 00:15 1,6 C 97 % 1019,2 hPa 0,0 l/m 0,0 km/h (0 Bft) O-NO 67 1,2 C 1,9 C 0,0 km/h (0 Bft)
11.01.2014 00:20 1,5 C 97 % 1019,2 hPa 0,0 l/m 0,0 km/h (0 Bft) N-NO 22 1,1 C 1,9 C 0,0 km/h (0 Bft)
11.01.2014 00:25 1,5 C 97 % 1019,4 hPa 0,0 l/m 0,0 km/h (0 Bft) NO 45 1,1 C 1,9 C 0,0 km/h (0 Bft)
11.01.2014 00:30 1,7 C 97 % 1019,4 hPa 0,0 l/m 0,0 km/h (0 Bft) N-NO 22 1,3 C 1,9 C 0,0 km/h (0 Bft)
11.01.2014 00:35 1,6 C 97 % 1019,4 hPa 0,0 l/m 0,0 km/h (0 Bft) N-NO 22 1,2 C 2,0 C 0,0 km/h (0 Bft)
11.01.2014 00:40 1,6 C 97 % 1019,4 hPa 0,0 l/m 0,0 km/h (0 Bft) O-NO 67 1,2 C 1,9 C 0,0 km/h (0 Bft)
11.01.2014 00:45 1,5 C 97 % 1019,3 hPa 0,0 l/m 0,0 km/h (0 Bft) O-NO 67 1,1 C 1,9 C 0,0 km/h (0 Bft)
11.01.2014 00:50 1,5 C 97 % 1019,3 hPa 0,0 l/m 0,0 km/h (0 Bft) N-NW 337 1,1 C 1,9 C 0,0 km/h (0 Bft)
11.01.2014 00:55 1,5 C 97 % 1019,3 hPa 0,0 l/m 0,0 km/h (0 Bft) N-NW 337 1,1 C 1,9 C 0,0 km/h (0 Bft)
11.01.2014 01:00 1,4 C 97 % 1019,3 hPa 0,0 l/m 0,0 km/h (0 Bft) NO 45 1,0 C 1,6 C 0,0 km/h (0 Bft)
11.01.2014 01:05 1,6 C 97 % 1019,2 hPa 0,0 l/m 0,3 km/h (0 Bft) NO 45 1,2 C 1,6 C 0,0 km/h (0 Bft)
11.01.2014 01:10 1,6 C 97 % 1019,2 hPa 0,0 l/m 0,3 km/h (0 Bft) NO 45 1,2 C 1,7 C 0,0 km/h (0 Bft)
11.01.2014 01:15 1,4 C 97 % 1019,2 hPa 0,0 l/m 0,2 km/h (0 Bft) NO 45 1,0 C 1,7 C 0,0 km/h (0 Bft)
11.01.2014 01:20 1,3 C 97 % 1019,2 hPa 0,0 l/m 0,0 km/h (0 Bft) O-NO 67 0,9 C 1,5 C 0,0 km/h (0 Bft)
11.01.2014 01:25 1,1 C 97 % 1019,1 hPa 0,0 l/m 0,0 km/h (0 Bft) N-NO 22 0,7 C 1,4 C 0,0 km/h (0 Bft)
11.01.2014 01:30 1,0 C 97 % 1019,1 hPa 0,0 l/m 0,0 km/h (0 Bft) N-NW 337 0,6 C 1,2 C 0,0 km/h (0 Bft)
11.01.2014 01:35 0,8 C 97 % 1019,1 hPa 0,0 l/m 0,0 km/h (0 Bft) O-NO 67 0,4 C 0,8 C 0,0 km/h (0 Bft)
11.01.2014 01:40 1,0 C 97 % 1019,1 hPa 0,0 l/m 0,0 km/h (0 Bft) O-NO 67 0,6 C 0,6 C 0,0 km/h (0 Bft)
11.01.2014 01:45 0,7 C 97 % 1018,9 hPa 0,0 l/m 0,0 km/h (0 Bft) O-NO 67 0,3 C 0,5 C 0,0 km/h (0 Bft)
11.01.2014 01:50 0,8 C 97 % 1018,9 hPa 0,0 l/m 0,0 km/h (0 Bft) NO 45 0,4 C 0,4 C 0,0 km/h (0 Bft)
11.01.2014 01:55 0,5 C 97 % 1018,9 hPa 0,0 l/m 0,0 km/h (0 Bft) NO 45 0,1 C 0,3 C 0,0 km/h (0 Bft)
11.01.2014 01:58 0,7 C 97 % 1018,9 hPa 0,0 l/m 0,0 km/h (0 Bft) O-NO 67 0,3 C 0,1 C 0,0 km/h (0 Bft)
11.01.2014 02:00 0,7 C 97 % 1018,9 hPa 0,0 l/m 0,0 km/h (0 Bft) O-NO 67 0,3 C 0,1 C 0,0 km/h (0 Bft)
11.01.2014 02:05 0,6 C 97 % 1018,9 hPa 0,0 l/m 0,0 km/h (0 Bft) O-NO 67 0,2 C 0,1 C 0,0 km/h (0 Bft)
11.01.2014 02:10 0,6 C 97 % 1018,9 hPa 0,0 l/m 0,0 km/h (0 Bft) N-NW 337 0,2 C 0,2 C 0,0 km/h (0 Bft)
11.01.2014 02:15 0,2 C 97 % 1018,9 hPa 0,0 l/m 0,0 km/h (0 Bft) O-NO 67 -0,2 C 0,1 C 0,0 km/h (0 Bft)
11.01.2014 02:20 0,0 C 97 % 1018,9 hPa 0,0 l/m 0,0 km/h (0 Bft) N-NW 337 -0,4 C -0,1 C 0,0 km/h (0 Bft)
11.01.2014 02:25 -0,2 C 97 % 1018,7 hPa 0,0 l/m 0,0 km/h (0 Bft) NO 45 -0,6 C -0,2 C 0,0 km/h (0 Bft)
11.01.2014 02:30 0,1 C 97 % 1018,7 hPa 0,0 l/m 0,6 km/h (0 Bft) W-SW 247 -0,3 C 0,1 C 5,1 km/h (1 Bft)
11.01.2014 02:35 0,2 C 97 % 1018,7 hPa 0,0 l/m 0,8 km/h (0 Bft) S 180 -0,2 C 0,1 C 0,0 km/h (0 Bft)
11.01.2014 02:40 0,5 C 97 % 1018,7 hPa 0,0 l/m 0,2 km/h (0 Bft) W 270 0,1 C 0,2 C 0,0 km/h (0 Bft)
11.01.2014 02:45 0,7 C 97 % 1018,8 hPa 0,0 l/m 0,0 km/h (0 Bft) W-SW 247 0,3 C 0,3 C 0,0 km/h (0 Bft)
11.01.2014 02:50 0,8 C 97 % 1018,8 hPa 0,0 l/m 0,0 km/h (0 Bft) O-SO 112 0,4 C 0,4 C 0,0 km/h (0 Bft)
11.01.2014 02:55 0,6 C 97 % 1018,8 hPa 0,0 l/m 0,0 km/h (0 Bft) O-SO 112 0,2 C 0,5 C 0,0 km/h (0 Bft)
11.01.2014 03:00 0,6 C 97 % 1018,8 hPa 0,0 l/m 0,0 km/h (0 Bft) O-SO 112 0,2 C 0,4 C 0,0 km/h (0 Bft)
11.01.2014 03:05 0,5 C 97 % 1018,8 hPa 0,0 l/m 0,0 km/h (0 Bft) O-SO 112 0,1 C 0,3 C 0,0 km/h (0 Bft)
11.01.2014 03:10 0,3 C 97 % 1018,8 hPa 0,0 l/m 0,0 km/h (0 Bft) O-SO 112 -0,1 C 0,2 C 0,0 km/h (0 Bft)
11.01.2014 03:15 0,2 C 97 % 1018,8 hPa 0,0 l/m 0,2 km/h (0 Bft) S-SW 202 -0,2 C 0,2 C 0,0 km/h (0 Bft)
11.01.2014 03:20 0,1 C 97 % 1018,8 hPa 0,0 l/m 0,2 km/h (0 Bft) W-SW 247 -0,3 C 0,1 C 0,0 km/h (0 Bft)
11.01.2014 03:25 0,2 C 97 % 1018,4 hPa 0,0 l/m 0,5 km/h (0 Bft) W-SW 247 -0,2 C 0,3 C 0,0 km/h (0 Bft)
11.01.2014 03:30 0,4 C 97 % 1018,4 hPa 0,0 l/m 1,0 km/h (0 Bft) W 270 -0,0 C 0,4 C 0,0 km/h (0 Bft)
11.01.2014 03:35 0,3 C 97 % 1018,4 hPa 0,0 l/m 0,5 km/h (0 Bft) NW 315 -0,1 C 0,4 C 0,0 km/h (0 Bft)
11.01.2014 03:40 0,5 C 97 % 1018,4 hPa 0,0 l/m 0,3 km/h (0 Bft) N 360 0,1 C 0,3 C 0,0 km/h (0 Bft)
11.01.2014 03:45 0,6 C 97 % 1018,4 hPa 0,0 l/m 0,2 km/h (0 Bft) N 360 0,2 C 0,4 C 0,0 km/h (0 Bft)
11.01.2014 03:50 0,3 C 97 % 1018,4 hPa 0,0 l/m 0,0 km/h (0 Bft) W-NW 292 -0,1 C 0,3 C 0,0 km/h (0 Bft)
11.01.2014 03:55 0,4 C 97 % 1018,4 hPa 0,0 l/m 0,0 km/h (0 Bft) W-NW 292 -0,0 C 0,2 C 0,0 km/h (0 Bft)
11.01.2014 04:00 0,1 C 97 % 1018,4 hPa 0,0 l/m 0,0 km/h (0 Bft) W-NW 292 -0,3 C 0,1 C 0,0 km/h (0 Bft)
11.01.2014 04:05 0,2 C 97 % 1018,4 hPa 0,0 l/m 0,0 km/h (0 Bft) W 270 -0,2 C -0,1 C 0,0 km/h (0 Bft)
11.01.2014 04:10 -0,1 C 97 % 1018,4 hPa 0,0 l/m 0,2 km/h (0 Bft) W-SW 247 -0,5 C -0,1 C 0,0 km/h (0 Bft)
11.01.2014 04:15 -0,1 C 97 % 1018,4 hPa 0,0 l/m 0,3 km/h (0 Bft) W-SW 247 -0,5 C -0,3 C 1,9 km/h (1 Bft)
11.01.2014 04:20 0,2 C 97 % 1018,4 hPa 0,0 l/m 0,3 km/h (0 Bft) W 270 -0,2 C -0,1 C 0,0 km/h (0 Bft)
11.01.2014 04:25 0,3 C 97 % 1018,2 hPa 0,0 l/m 0,3 km/h (0 Bft) W 270 -0,1 C -0,2 C 0,0 km/h (0 Bft)
11.01.2014 04:30 0,1 C 97 % 1018,2 hPa 0,0 l/m 0,0 km/h (0 Bft) W 270 -0,3 C -0,2 C 0,0 km/h (0 Bft)
11.01.2014 04:35 0,2 C 97 % 1018,2 hPa 0,0 l/m 0,0 km/h (0 Bft) W 270 -0,2 C -0,3 C 0,0 km/h (0 Bft)
11.01.2014 04:40 0,0 C 97 % 1018,2 hPa 0,0 l/m 0,0 km/h (0 Bft) N 360 -0,4 C -0,3 C 0,0 km/h (0 Bft)
11.01.2014 04:45 0,2 C 97 % 1018,2 hPa 0,0 l/m 0,0 km/h (0 Bft) W-SW 247 -0,2 C -0,2 C 0,0 km/h (0 Bft)
11.01.2014 04:50 -0,2 C 97 % 1018,2 hPa 0,0 l/m 0,0 km/h (0 Bft) W-SW 247 -0,6 C -0,2 C 0,0 km/h (0 Bft)
11.01.2014 04:55 -0,4 C 97 % 1018,2 hPa 0,0 l/m 0,0 km/h (0 Bft) W-SW 247 -0,8 C -0,3 C 0,0 km/h (0 Bft)
11.01.2014 05:00 -0,4 C 97 % 1018,2 hPa 0,0 l/m 0,0 km/h (0 Bft) W-SW 247 -0,8 C -0,5 C 0,0 km/h (0 Bft)
11.01.2014 05:05 -0,4 C 97 % 1018,1 hPa 0,0 l/m 0,0 km/h (0 Bft) W-SW 247 -0,8 C -0,5 C 0,0 km/h (0 Bft)
11.01.2014 05:10 -0,4 C 97 % 1018,1 hPa 0,0 l/m 0,0 km/h (0 Bft) W-SW 247 -0,8 C -0,6 C 0,0 km/h (0 Bft)
11.01.2014 05:15 -0,1 C 97 % 1018,1 hPa 0,0 l/m 0,0 km/h (0 Bft) W-NW 292 -0,5 C -0,4 C 0,0 km/h (0 Bft)
11.01.2014 05:20 -0,1 C 97 % 1018,1 hPa 0,0 l/m 0,0 km/h (0 Bft) W 270 -0,5 C -0,3 C 0,0 km/h (0 Bft)
11.01.2014 05:25 -0,2 C 97 % 1017,9 hPa 0,0 l/m 0,0 km/h (0 Bft) W 270 -0,6 C -0,2 C 0,0 km/h (0 Bft)
11.01.2014 05:30 -0,1 C 97 % 1017,9 hPa 0,0 l/m 0,0 km/h (0 Bft) W 270 -0,5 C -0,4 C 0,0 km/h (0 Bft)
11.01.2014 05:35 -0,3 C 97 % 1017,9 hPa 0,0 l/m 0,0 km/h (0 Bft) W 270 -0,7 C -0,3 C 0,0 km/h (0 Bft)
11.01.2014 05:40 0,1 C 97 % 1017,9 hPa 0,0 l/m 0,0 km/h (0 Bft) N-NW 337 -0,3 C -0,3 C 0,0 km/h (0 Bft)
11.01.2014 05:45 -0,1 C 97 % 1017,9 hPa 0,0 l/m 0,0 km/h (0 Bft) N-NW 337 -0,5 C -0,2 C 0,0 km/h (0 Bft)
11.01.2014 05:50 -0,2 C 97 % 1017,9 hPa 0,0 l/m 0,0 km/h (0 Bft) W-NW 292 -0,6 C -0,3 C 0,0 km/h (0 Bft)
11.01.2014 05:55 -0,4 C 97 % 1017,9 hPa 0,0 l/m 0,0 km/h (0 Bft) W-NW 292 -0,8 C -0,4 C 0,0 km/h (0 Bft)
11.01.2014 06:00 -0,1 C 97 % 1017,9 hPa 0,0 l/m 0,0 km/h (0 Bft) N-NW 337 -0,5 C -0,5 C 0,0 km/h (0 Bft)
11.01.2014 06:05 -0,1 C 97 % 1017,8 hPa 0,0 l/m 0,0 km/h (0 Bft) N-NW 337 -0,5 C -0,5 C 0,0 km/h (0 Bft)
11.01.2014 06:10 -0,2 C 97 % 1017,8 hPa 0,0 l/m 0,0 km/h (0 Bft) N-NW 337 -0,6 C -0,4 C 0,0 km/h (0 Bft)
11.01.2014 06:15 -0,1 C 97 % 1017,8 hPa 0,0 l/m 0,0 km/h (0 Bft) N-NW 337 -0,5 C -0,4 C 0,0 km/h (0 Bft)
11.01.2014 06:20 -0,1 C 97 % 1017,8 hPa 0,0 l/m 0,0 km/h (0 Bft) N-NW 337 -0,5 C -0,3 C 0,0 km/h (0 Bft)
11.01.2014 06:25 0,0 C 97 % 1017,8 hPa 0,0 l/m 0,0 km/h (0 Bft) N-NW 337 -0,4 C -0,2 C 0,0 km/h (0 Bft)
11.01.2014 06:30 0,0 C 97 % 1017,8 hPa 0,0 l/m 0,0 km/h (0 Bft) W 270 -0,4 C 0,0 C 0,0 km/h (0 Bft)
11.01.2014 06:35 -0,1 C 97 % 1017,8 hPa 0,0 l/m 0,0 km/h (0 Bft) W 270 -0,5 C -0,1 C 0,0 km/h (0 Bft)
11.01.2014 06:40 -0,1 C 97 % 1017,8 hPa 0,0 l/m 0,0 km/h (0 Bft) N 360 -0,5 C -0,1 C 0,0 km/h (0 Bft)
11.01.2014 06:45 0,0 C 97 % 1017,8 hPa 0,0 l/m 0,0 km/h (0 Bft) N 360 -0,4 C -0,1 C 0,0 km/h (0 Bft)
11.01.2014 06:50 0,1 C 97 % 1017,8 hPa 0,0 l/m 0,0 km/h (0 Bft) N 360 -0,3 C 0,0 C 0,0 km/h (0 Bft)
11.01.2014 06:55 0,1 C 97 % 1017,8 hPa 0,0 l/m 0,0 km/h (0 Bft) W-SW 247 -0,3 C 0,1 C 0,0 km/h (0 Bft)
11.01.2014 07:00 0,1 C 97 % 1017,8 hPa 0,0 l/m 0,0 km/h (0 Bft) N 360 -0,3 C 0,4 C 0,0 km/h (0 Bft)
11.01.2014 07:05 0,1 C 97 % 1017,8 hPa 0,0 l/m 0,0 km/h (0 Bft) W 270 -0,3 C 0,5 C 0,0 km/h (0 Bft)
11.01.2014 07:10 0,3 C 97 % 1017,8 hPa 0,0 l/m 0,5 km/h (0 Bft) SO 135 -0,1 C 0,8 C 0,0 km/h (0 Bft)
11.01.2014 07:15 0,4 C 97 % 1017,8 hPa 0,0 l/m 0,6 km/h (0 Bft) W 270 -0,0 C 1,0 C 3,2 km/h (1 Bft)
11.01.2014 07:20 0,6 C 97 % 1017,8 hPa 0,0 l/m 1,4 km/h (1 Bft) N-NO 22 0,2 C 1,0 C 3,4 km/h (1 Bft)
11.01.2014 07:25 0,9 C 97 % 1017,7 hPa 0,0 l/m 1,6 km/h (1 Bft) N-NW 337 0,5 C 1,1 C 0,0 km/h (0 Bft)
11.01.2014 07:30 0,8 C 97 % 1017,7 hPa 0,0 l/m 0,5 km/h (0 Bft) NO 45 0,4 C 1,2 C 0,0 km/h (0 Bft)
11.01.2014 07:35 0,8 C 97 % 1017,7 hPa 0,0 l/m 0,3 km/h (0 Bft) S 180 0,4 C 1,2 C 0,0 km/h (0 Bft)
11.01.2014 07:40 0,8 C 97 % 1017,7 hPa 0,0 l/m 0,5 km/h (0 Bft) W-SW 247 0,4 C 1,2 C 0,0 km/h (0 Bft)
11.01.2014 07:45 0,9 C 97 % 1017,8 hPa 0,0 l/m 0,5 km/h (0 Bft) O 90 0,5 C 1,1 C 3,1 km/h (1 Bft)
11.01.2014 07:50 1,2 C 97 % 1017,8 hPa 0,0 l/m 0,8 km/h (0 Bft) N-NW 337 0,8 C 1,3 C 0,0 km/h (0 Bft)
11.01.2014 07:55 1,0 C 97 % 1017,8 hPa 0,0 l/m 0,5 km/h (0 Bft) O 90 0,6 C 1,3 C 0,0 km/h (0 Bft)
11.01.2014 07:58 1,0 C 97 % 1017,8 hPa 0,0 l/m 0,3 km/h (0 Bft) W-NW 292 0,6 C 1,4 C 0,0 km/h (0 Bft)
11.01.2014 08:00 1,0 C 97 % 1017,8 hPa 0,0 l/m 0,3 km/h (0 Bft) W-NW 292 0,6 C 1,4 C 0,0 km/h (0 Bft)
11.01.2014 08:05 0,8 C 97 % 1017,8 hPa 0,0 l/m 0,3 km/h (0 Bft) N-NW 337 0,4 C 1,3 C 0,0 km/h (0 Bft)
11.01.2014 08:10 0,9 C 98 % 1017,8 hPa 0,0 l/m 0,0 km/h (0 Bft) N-NW 337 0,6 C 1,2 C 0,0 km/h (0 Bft)
11.01.2014 08:15 1,0 C 97 % 1017,8 hPa 0,0 l/m 0,0 km/h (0 Bft) N-NW 337 0,6 C 1,2 C 0,0 km/h (0 Bft)
11.01.2014 08:20 1,1 C 97 % 1017,8 hPa 0,0 l/m 0,0 km/h (0 Bft) N-NW 337 0,7 C 1,3 C 0,0 km/h (0 Bft)
11.01.2014 08:25 1,2 C 97 % 1017,9 hPa 0,0 l/m 0,0 km/h (0 Bft) N-NW 337 0,8 C 1,4 C 0,0 km/h (0 Bft)
11.01.2014 08:30 1,2 C 97 % 1017,9 hPa 0,0 l/m 0,0 km/h (0 Bft) W-NW 292 0,8 C 1,5 C 0,0 km/h (0 Bft)
11.01.2014 08:35 1,2 C 97 % 1017,9 hPa 0,0 l/m 0,0 km/h (0 Bft) NW 315 0,8 C 1,6 C 0,0 km/h (0 Bft)
11.01.2014 08:40 1,3 C 97 % 1017,9 hPa 0,0 l/m 0,0 km/h (0 Bft) W-NW 292 0,9 C 1,7 C 0,0 km/h (0 Bft)
11.01.2014 08:45 1,3 C 97 % 1017,8 hPa 0,0 l/m 0,0 km/h (0 Bft) N-NW 337 0,9 C 1,7 C 0,0 km/h (0 Bft)
11.01.2014 08:50 1,3 C 97 % 1017,8 hPa 0,0 l/m 0,0 km/h (0 Bft) W-NW 292 0,9 C 1,8 C 0,0 km/h (0 Bft)
11.01.2014 08:55 1,4 C 97 % 1017,8 hPa 0,0 l/m 0,2 km/h (0 Bft) SO 135 1,0 C 1,8 C 0,0 km/h (0 Bft)
11.01.2014 09:00 1,5 C 97 % 1017,8 hPa 0,0 l/m 0,2 km/h (0 Bft) O 90 1,1 C 1,9 C 0,0 km/h (0 Bft)
11.01.2014 09:05 1,6 C 97 % 1018,0 hPa 0,0 l/m 0,0 km/h (0 Bft) O-SO 112 1,2 C 1,9 C 0,0 km/h (0 Bft)
11.01.2014 09:10 1,7 C 97 % 1018,0 hPa 0,0 l/m 0,0 km/h (0 Bft) O 90 1,3 C 2,0 C 0,0 km/h (0 Bft)
11.01.2014 09:15 1,7 C 97 % 1018,0 hPa 0,0 l/m 0,0 km/h (0 Bft) N-NO 22 1,3 C 2,1 C 0,0 km/h (0 Bft)
11.01.2014 09:20 2,0 C 97 % 1018,0 hPa 0,0 l/m 0,0 km/h (0 Bft) O 90 1,6 C 2,3 C 0,0 km/h (0 Bft)
11.01.2014 09:25 2,4 C 97 % 1017,9 hPa 0,0 l/m 0,0 km/h (0 Bft) N 360 2,0 C 2,6 C 0,0 km/h (0 Bft)
11.01.2014 09:30 2,5 C 97 % 1017,9 hPa 0,0 l/m 0,3 km/h (0 Bft) N-NO 22 2,1 C 2,9 C 0,0 km/h (0 Bft)
11.01.2014 09:35 2,6 C 97 % 1017,9 hPa 0,0 l/m 0,5 km/h (0 Bft) N 360 2,2 C 3,1 C 0,0 km/h (0 Bft)
11.01.2014 09:40 2,9 C 97 % 1017,9 hPa 0,0 l/m 0,3 km/h (0 Bft) N-NW 337 2,5 C 3,3 C 0,0 km/h (0 Bft)
11.01.2014 09:45 3,0 C 96 % 1018,0 hPa 0,0 l/m 0,3 km/h (0 Bft) W 270 2,4 C 3,5 C 0,0 km/h (0 Bft)
11.01.2014 09:50 3,0 C 96 % 1018,0 hPa 0,0 l/m 0,2 km/h (0 Bft) O-SO 112 2,4 C 3,8 C 0,0 km/h (0 Bft)
11.01.2014 09:55 3,0 C 96 % 1018,0 hPa 0,0 l/m 0,0 km/h (0 Bft) W-SW 247 2,4 C 3,9 C 3,1 km/h (1 Bft)
11.01.2014 10:00 3,1 C 96 % 1018,0 hPa 0,0 l/m 0,2 km/h (0 Bft) O 90 2,5 C 4,0 C 0,0 km/h (0 Bft)
11.01.2014 10:05 3,2 C 96 % 1018,1 hPa 0,0 l/m 0,5 km/h (0 Bft) N-NO 22 2,6 C 4,1 C 0,0 km/h (0 Bft)
11.01.2014 10:10 3,4 C 96 % 1018,1 hPa 0,0 l/m 0,3 km/h (0 Bft) W-NW 292 2,8 C 4,1 C 0,0 km/h (0 Bft)
11.01.2014 10:15 3,5 C 96 % 1018,1 hPa 0,0 l/m 0,2 km/h (0 Bft) O-SO 112 2,9 C 4,2 C 0,0 km/h (0 Bft)
11.01.2014 10:20 3,6 C 96 % 1018,1 hPa 0,0 l/m 0,2 km/h (0 Bft) S 180 3,0 C 4,3 C 0,0 km/h (0 Bft)
11.01.2014 10:25 3,6 C 96 % 1017,9 hPa 0,0 l/m 0,0 km/h (0 Bft) NO 45 3,0 C 4,5 C 0,0 km/h (0 Bft)
11.01.2014 10:30 3,8 C 96 % 1017,9 hPa 0,0 l/m 0,0 km/h (0 Bft) N 360 3,2 C 4,8 C 0,0 km/h (0 Bft)
11.01.2014 10:35 4,0 C 96 % 1017,9 hPa 0,0 l/m 0,0 km/h (0 Bft) N 360 3,4 C 5,1 C 0,0 km/h (0 Bft)
11.01.2014 10:40 4,3 C 96 % 1017,9 hPa 0,0 l/m 0,0 km/h (0 Bft) N 360 3,7 C 5,4 C 0,0 km/h (0 Bft)
11.01.2014 10:45 4,3 C 96 % 1018,2 hPa 0,0 l/m 0,0 km/h (0 Bft) N-NW 337 3,7 C 5,7 C 0,0 km/h (0 Bft)
11.01.2014 10:50 4,4 C 96 % 1018,2 hPa 0,0 l/m 0,0 km/h (0 Bft) NO 45 3,8 C 5,7 C 0,0 km/h (0 Bft)
11.01.2014 10:55 4,5 C 96 % 1018,2 hPa 0,0 l/m 0,0 km/h (0 Bft) NO 45 3,9 C 5,8 C 0,0 km/h (0 Bft)
11.01.2014 11:00 4,4 C 96 % 1018,2 hPa 0,0 l/m 0,0 km/h (0 Bft) N-NW 337 3,8 C 6,0 C 0,0 km/h (0 Bft)
11.01.2014 11:05 4,5 C 96 % 1018,4 hPa 0,0 l/m 0,0 km/h (0 Bft) N 360 3,9 C 6,0 C 0,0 km/h (0 Bft)
11.01.2014 11:10 4,7 C 96 % 1018,4 hPa 0,0 l/m 0,0 km/h (0 Bft) NO 45 4,1 C 6,1 C 0,0 km/h (0 Bft)
11.01.2014 11:15 4,7 C 96 % 1018,4 hPa 0,0 l/m 0,0 km/h (0 Bft) N-NO 22 4,1 C 6,2 C 0,0 km/h (0 Bft)
11.01.2014 11:20 4,9 C 96 % 1018,4 hPa 0,0 l/m 0,3 km/h (0 Bft) W 270 4,3 C 6,9 C 3,5 km/h (1 Bft)
11.01.2014 11:25 5,0 C 96 % 1018,1 hPa 0,0 l/m 0,6 km/h (0 Bft) W-NW 292 4,4 C 7,2 C 0,0 km/h (0 Bft)
11.01.2014 11:30 5,2 C 96 % 1018,1 hPa 0,0 l/m 0,8 km/h (0 Bft) NO 45 4,6 C 7,4 C 2,1 km/h (1 Bft)
11.01.2014 11:35 5,5 C 96 % 1018,1 hPa 0,0 l/m 0,5 km/h (0 Bft) N-NO 22 4,9 C 7,6 C 0,0 km/h (0 Bft)
11.01.2014 11:40 5,8 C 96 % 1018,1 hPa 0,0 l/m 0,2 km/h (0 Bft) N-NO 22 5,2 C 8,0 C 1,6 km/h (1 Bft)
11.01.2014 11:45 5,8 C 96 % 1018,3 hPa 0,0 l/m 0,2 km/h (0 Bft) N 360 5,2 C 8,2 C 0,0 km/h (0 Bft)
11.01.2014 11:50 6,2 C 95 % 1018,3 hPa 0,0 l/m 0,3 km/h (0 Bft) NO 45 5,5 C 8,8 C 0,0 km/h (0 Bft)
11.01.2014 11:55 6,5 C 95 % 1018,3 hPa 0,0 l/m 0,3 km/h (0 Bft) NO 45 5,8 C 9,2 C 2,3 km/h (1 Bft)
11.01.2014 12:00 6,7 C 95 % 1018,3 hPa 0,0 l/m 0,5 km/h (0 Bft) NO 45 6,0 C 9,6 C 0,0 km/h (0 Bft)
11.01.2014 12:05 6,9 C 95 % 1018,2 hPa 0,0 l/m 0,3 km/h (0 Bft) NO 45 6,2 C 9,8 C 0,0 km/h (0 Bft)
11.01.2014 12:10 6,9 C 95 % 1018,2 hPa 0,0 l/m 0,6 km/h (0 Bft) O-SO 112 6,2 C 9,9 C 2,7 km/h (1 Bft)
11.01.2014 12:15 7,1 C 94 % 1018,2 hPa 0,0 l/m 1,6 km/h (1 Bft) S-SO 157 6,2 C 10,0 C 2,4 km/h (1 Bft)
11.01.2014 12:20 7,1 C 94 % 1018,2 hPa 0,0 l/m 1,3 km/h (1 Bft) O-NO 67 6,2 C 9,9 C 0,0 km/h (0 Bft)
11.01.2014 12:25 7,1 C 94 % 1018,2 hPa 0,0 l/m 0,5 km/h (0 Bft) O-SO 112 6,2 C 9,9 C 0,0 km/h (0 Bft)
11.01.2014 12:30 7,1 C 94 % 1018,2 hPa 0,0 l/m 0,3 km/h (0 Bft) O-SO 112 6,2 C 9,8 C 0,0 km/h (0 Bft)
11.01.2014 12:35 7,1 C 94 % 1018,2 hPa 0,0 l/m 0,3 km/h (0 Bft) S 180 6,2 C 9,7 C 0,0 km/h (0 Bft)
11.01.2014 12:40 7,5 C 93 % 1018,2 hPa 0,0 l/m 0,3 km/h (0 Bft) NO 45 6,4 C 9,9 C 0,0 km/h (0 Bft)
11.01.2014 12:45 7,8 C 93 % 1018,4 hPa 0,0 l/m 0,3 km/h (0 Bft) NO 45 6,7 C 10,2 C 0,0 km/h (0 Bft)
11.01.2014 12:50 7,7 C 93 % 1018,4 hPa 0,0 l/m 0,3 km/h (0 Bft) W 270 6,6 C 10,5 C 2,1 km/h (1 Bft)
11.01.2014 12:55 7,7 C 92 % 1018,4 hPa 0,0 l/m 0,3 km/h (0 Bft) W-SW 247 6,5 C 10,5 C 0,0 km/h (0 Bft)
11.01.2014 13:00 7,7 C 92 % 1018,4 hPa 0,0 l/m 0,3 km/h (0 Bft) W-SW 247 6,5 C 10,4 C 0,0 km/h (0 Bft)
11.01.2014 13:05 7,6 C 92 % 1018,5 hPa 0,0 l/m 0,0 km/h (0 Bft) W-SW 247 6,4 C 10,3 C 0,0 km/h (0 Bft)
11.01.2014 13:10 7,7 C 92 % 1018,5 hPa 0,0 l/m 0,0 km/h (0 Bft) W-SW 247 6,5 C 10,3 C 0,0 km/h (0 Bft)
11.01.2014 13:15 7,8 C 91 % 1018,5 hPa 0,0 l/m 0,0 km/h (0 Bft) W-SW 247 6,4 C 10,3 C 0,0 km/h (0 Bft)
11.01.2014 13:20 7,9 C 91 % 1018,5 hPa 0,0 l/m 0,2 km/h (0 Bft) S 180 6,5 C 10,4 C 1,6 km/h (1 Bft)
11.01.2014 13:25 7,9 C 91 % 1018,8 hPa 0,0 l/m 1,0 km/h (0 Bft) SO 135 6,5 C 10,3 C 2,4 km/h (1 Bft)
11.01.2014 13:30 7,9 C 91 % 1018,8 hPa 0,0 l/m 1,9 km/h (1 Bft) S-SO 157 6,5 C 10,1 C 0,0 km/h (0 Bft)
11.01.2014 13:35 8,1 C 91 % 1018,8 hPa 0,0 l/m 1,4 km/h (1 Bft) SO 135 6,7 C 10,0 C 2,6 km/h (1 Bft)
11.01.2014 13:40 8,1 C 91 % 1018,8 hPa 0,0 l/m 0,6 km/h (0 Bft) S 180 6,7 C 10,1 C 0,0 km/h (0 Bft)
11.01.2014 13:45 8,1 C 91 % 1018,9 hPa 0,0 l/m 0,5 km/h (0 Bft) S-SO 157 6,7 C 10,1 C 0,0 km/h (0 Bft)
11.01.2014 13:50 8,1 C 91 % 1018,9 hPa 0,0 l/m 0,2 km/h (0 Bft) S-SW 202 6,7 C 10,2 C 0,0 km/h (0 Bft)
11.01.2014 13:55 8,1 C 91 % 1018,9 hPa 0,0 l/m 1,3 km/h (1 Bft) S 180 6,7 C 10,2 C 6,4 km/h (2 Bft)
11.01.2014 13:58 7,9 C 90 % 1018,9 hPa 0,0 l/m 3,9 km/h (1 Bft) S-SO 157 6,4 C 10,0 C 7,6 km/h (2 Bft)
11.01.2014 14:00 7,9 C 90 % 1018,9 hPa 0,0 l/m 3,9 km/h (1 Bft) S-SO 157 6,4 C 10,0 C 6,9 km/h (2 Bft)
11.01.2014 14:05 7,8 C 90 % 1019,2 hPa 0,0 l/m 4,7 km/h (1 Bft) S-SW 202 6,3 C 9,8 C 4,0 km/h (1 Bft)
11.01.2014 14:10 7,7 C 87 % 1019,2 hPa 0,0 l/m 6,4 km/h (2 Bft) S 180 5,7 C 9,2 C 15,0 km/h (3 Bft)
11.01.2014 14:15 7,6 C 87 % 1019,2 hPa 0,0 l/m 6,6 km/h (2 Bft) S-SW 202 5,6 C 8,9 C 9,5 km/h (2 Bft)
11.01.2014 14:20 7,5 C 86 % 1019,2 hPa 0,0 l/m 6,4 km/h (2 Bft) S 180 5,3 C 8,8 C 7,2 km/h (2 Bft)
11.01.2014 14:25 7,5 C 86 % 1019,6 hPa 0,0 l/m 6,8 km/h (2 Bft) S 180 5,3 C 8,3 C 7,4 km/h (2 Bft)
11.01.2014 14:30 7,3 C 86 % 1019,6 hPa 0,0 l/m 6,4 km/h (2 Bft) S-SO 157 5,1 C 8,5 C 6,6 km/h (2 Bft)
11.01.2014 14:35 7,3 C 87 % 1019,6 hPa 0,0 l/m 6,0 km/h (2 Bft) O-SO 112 5,3 C 8,6 C 2,4 km/h (1 Bft)
11.01.2014 14:40 7,4 C 87 % 1019,6 hPa 0,0 l/m 6,0 km/h (2 Bft) O 90 5,4 C 8,6 C 7,4 km/h (2 Bft)
11.01.2014 14:45 7,4 C 87 % 1019,8 hPa 0,0 l/m 5,6 km/h (1 Bft) S-SO 157 5,4 C 8,7 C 8,9 km/h (2 Bft)
11.01.2014 14:50 7,3 C 87 % 1019,8 hPa 0,0 l/m 6,9 km/h (2 Bft) S 180 5,3 C 7,8 C 11,1 km/h (2 Bft)
11.01.2014 14:55 7,4 C 86 % 1019,8 hPa 0,0 l/m 7,4 km/h (2 Bft) SO 135 5,2 C 7,3 C 14,8 km/h (3 Bft)
11.01.2014 15:00 7,6 C 85 % 1019,8 hPa 0,0 l/m 7,4 km/h (2 Bft) SO 135 5,2 C 7,5 C 8,5 km/h (2 Bft)
11.01.2014 15:05 7,6 C 84 % 1020,1 hPa 0,0 l/m 7,4 km/h (2 Bft) S 180 5,1 C 7,5 C 12,7 km/h (3 Bft)
11.01.2014 15:10 7,5 C 84 % 1020,1 hPa 0,0 l/m 7,2 km/h (2 Bft) O-SO 112 5,0 C 7,5 C 7,1 km/h (2 Bft)
11.01.2014 15:15 7,4 C 84 % 1020,1 hPa 0,0 l/m 6,4 km/h (2 Bft) N-NO 22 4,9 C 8,2 C 6,9 km/h (2 Bft)
11.01.2014 15:20 7,3 C 84 % 1020,1 hPa 0,0 l/m 6,1 km/h (2 Bft) S-SO 157 4,8 C 7,9 C 7,1 km/h (2 Bft)
11.01.2014 15:25 7,2 C 85 % 1020,3 hPa 0,0 l/m 6,8 km/h (2 Bft) O-SO 112 4,9 C 7,4 C 11,6 km/h (2 Bft)
11.01.2014 15:30 7,3 C 84 % 1020,3 hPa 0,0 l/m 5,6 km/h (1 Bft) SO 135 4,8 C 7,9 C 7,6 km/h (2 Bft)
11.01.2014 15:35 7,1 C 85 % 1020,3 hPa 0,0 l/m 4,7 km/h (1 Bft) O-SO 112 4,8 C 8,2 C 5,1 km/h (1 Bft)
11.01.2014 15:40 7,2 C 84 % 1020,3 hPa 0,0 l/m 4,7 km/h (1 Bft) SO 135 4,7 C 8,0 C 6,9 km/h (2 Bft)
11.01.2014 15:45 7,3 C 84 % 1019,9 hPa 0,0 l/m 5,0 km/h (1 Bft) O-SO 112 4,8 C 7,9 C 6,9 km/h (2 Bft)
11.01.2014 15:50 7,2 C 85 % 1019,9 hPa 0,0 l/m 5,3 km/h (1 Bft) S-SO 157 4,9 C 7,7 C 6,4 km/h (2 Bft)
11.01.2014 15:55 7,1 C 85 % 1019,9 hPa 0,0 l/m 4,7 km/h (1 Bft) S 180 4,8 C 7,9 C 3,5 km/h (1 Bft)
11.01.2014 16:00 7,4 C 84 % 1019,9 hPa 0,0 l/m 4,2 km/h (1 Bft) O-SO 112 4,9 C 7,9 C 3,9 km/h (1 Bft)
11.01.2014 16:05 7,4 C 83 % 1020,0 hPa 0,0 l/m 4,0 km/h (1 Bft) O-SO 112 4,7 C 7,8 C 6,3 km/h (2 Bft)
11.01.2014 16:10 7,6 C 82 % 1020,0 hPa 0,0 l/m 4,5 km/h (1 Bft) O-SO 112 4,7 C 7,8 C 7,4 km/h (2 Bft)
11.01.2014 16:15 7,5 C 81 % 1020,0 hPa 0,0 l/m 5,0 km/h (1 Bft) SO 135 4,5 C 7,6 C 5,0 km/h (1 Bft)
11.01.2014 16:20 7,6 C 80 % 1020,0 hPa 0,0 l/m 3,5 km/h (1 Bft) S 180 4,4 C 8,0 C 2,7 km/h (1 Bft)
11.01.2014 16:25 7,7 C 79 % 1019,8 hPa 0,0 l/m 3,9 km/h (1 Bft) O 90 4,3 C 8,1 C 6,3 km/h (2 Bft)
11.01.2014 16:30 7,7 C 77 % 1019,8 hPa 0,0 l/m 5,6 km/h (1 Bft) S 180 3,9 C 7,4 C 6,8 km/h (2 Bft)
11.01.2014 16:35 7,8 C 77 % 1019,8 hPa 0,0 l/m 6,1 km/h (2 Bft) SO 135 4,0 C 7,1 C 6,1 km/h (2 Bft)
11.01.2014 16:40 7,8 C 74 % 1019,8 hPa 0,0 l/m 6,6 km/h (2 Bft) O-SO 112 3,5 C 7,0 C 8,4 km/h (2 Bft)
11.01.2014 16:45 7,8 C 74 % 1019,7 hPa 0,0 l/m 6,4 km/h (2 Bft) SO 135 3,5 C 7,2 C 9,0 km/h (2 Bft)
11.01.2014 16:50 7,5 C 76 % 1019,7 hPa 0,0 l/m 5,6 km/h (1 Bft) O-SO 112 3,5 C 6,9 C 6,8 km/h (2 Bft)
11.01.2014 16:55 7,5 C 75 % 1019,7 hPa 0,0 l/m 5,5 km/h (1 Bft) SO 135 3,4 C 6,7 C 7,1 km/h (2 Bft)
11.01.2014 17:00 7,5 C 75 % 1019,7 hPa 0,0 l/m 5,1 km/h (1 Bft) O-SO 112 3,4 C 6,6 C 7,2 km/h (2 Bft)
11.01.2014 17:05 7,4 C 75 % 1019,8 hPa 0,0 l/m 5,0 km/h (1 Bft) O-SO 112 3,3 C 6,7 C 11,3 km/h (2 Bft)
11.01.2014 17:10 7,3 C 75 % 1019,8 hPa 0,0 l/m 6,4 km/h (2 Bft) O-SO 112 3,2 C 6,0 C 7,1 km/h (2 Bft)
11.01.2014 17:15 7,0 C 76 % 1019,8 hPa 0,0 l/m 6,4 km/h (2 Bft) O-SO 112 3,1 C 6,0 C 6,9 km/h (2 Bft)
11.01.2014 17:20 6,8 C 77 % 1019,8 hPa 0,0 l/m 6,9 km/h (2 Bft) S-SO 157 3,1 C 5,7 C 7,6 km/h (2 Bft)
11.01.2014 17:25 6,6 C 77 % 1019,7 hPa 0,0 l/m 7,6 km/h (2 Bft) S 180 2,9 C 4,9 C 8,0 km/h (2 Bft)
11.01.2014 17:30 6,3 C 78 % 1019,7 hPa 0,0 l/m 8,2 km/h (2 Bft) S 180 2,8 C 4,2 C 15,4 km/h (3 Bft)
11.01.2014 17:35 6,3 C 78 % 1019,7 hPa 0,0 l/m 8,0 km/h (2 Bft) S 180 2,8 C 4,3 C 7,7 km/h (2 Bft)
11.01.2014 17:40 6,4 C 78 % 1019,7 hPa 0,0 l/m 8,4 km/h (2 Bft) S 180 2,8 C 4,0 C 10,6 km/h (2 Bft)
11.01.2014 17:45 6,3 C 79 % 1019,8 hPa 0,0 l/m 8,7 km/h (2 Bft) S 180 2,9 C 3,7 C 15,1 km/h (3 Bft)
11.01.2014 17:50 6,4 C 78 % 1019,8 hPa 0,0 l/m 9,2 km/h (2 Bft) S 180 2,8 C 3,2 C 14,2 km/h (3 Bft)
11.01.2014 17:55 6,3 C 78 % 1019,8 hPa 0,0 l/m 8,9 km/h (2 Bft) S 180 2,8 C 3,5 C 11,4 km/h (2 Bft)
11.01.2014 18:00 6,2 C 79 % 1019,8 hPa 0,0 l/m 8,4 km/h (2 Bft) S-SO 157 2,8 C 4,0 C 10,3 km/h (2 Bft)
11.01.2014 18:05 6,2 C 79 % 1020,1 hPa 0,0 l/m 8,2 km/h (2 Bft) S-SO 157 2,8 C 4,2 C 12,6 km/h (3 Bft)
11.01.2014 18:10 6,0 C 80 % 1020,1 hPa 0,0 l/m 7,7 km/h (2 Bft) S 180 2,8 C 4,2 C 10,0 km/h (2 Bft)
11.01.2014 18:15 6,0 C 80 % 1020,1 hPa 0,0 l/m 8,4 km/h (2 Bft) S-SO 157 2,8 C 3,4 C 8,7 km/h (2 Bft)
11.01.2014 18:20 5,9 C 81 % 1020,1 hPa 0,0 l/m 9,2 km/h (2 Bft) S-SO 157 2,9 C 2,4 C 15,8 km/h (3 Bft)
11.01.2014 18:25 5,9 C 81 % 1020,4 hPa 0,0 l/m 8,9 km/h (2 Bft) S 180 2,9 C 2,7 C 11,6 km/h (2 Bft)
11.01.2014 18:30 5,6 C 82 % 1020,4 hPa 0,0 l/m 9,3 km/h (2 Bft) S 180 2,8 C 1,9 C 10,0 km/h (2 Bft)
11.01.2014 18:35 5,6 C 82 % 1020,4 hPa 0,0 l/m 9,7 km/h (2 Bft) S 180 2,8 C 1,5 C 15,4 km/h (3 Bft)
11.01.2014 18:40 5,5 C 83 % 1020,4 hPa 0,0 l/m 10,0 km/h (2 Bft) S 180 2,8 C 1,1 C 19,5 km/h (3 Bft)
11.01.2014 18:45 5,6 C 83 % 1020,4 hPa 0,0 l/m 9,7 km/h (2 Bft) S 180 2,9 C 1,4 C 15,8 km/h (3 Bft)
11.01.2014 18:50 5,6 C 83 % 1020,4 hPa 0,0 l/m 10,1 km/h (2 Bft) S 180 2,9 C 1,1 C 19,8 km/h (3 Bft)
11.01.2014 18:54 5,7 C 83 % 1020,4 hPa 0,0 l/m 10,6 km/h (2 Bft) S-SO 157 3,0 C 0,7 C 8,4 km/h (2 Bft)
11.01.2014 18:55 5,7 C 83 % 1020,4 hPa 0,0 l/m 10,6 km/h (2 Bft) S-SO 157 3,0 C 0,7 C 8,4 km/h (2 Bft)
11.01.2014 19:00 5,7 C 83 % 1020,4 hPa 0,0 l/m 10,0 km/h (2 Bft) S 180 3,0 C 1,3 C 10,0 km/h (2 Bft)
11.01.2014 19:05 5,6 C 83 % 1020,9 hPa 0,0 l/m 9,3 km/h (2 Bft) W-SW 247 2,9 C 2,1 C 11,4 km/h (2 Bft)
11.01.2014 19:10 5,6 C 83 % 1020,9 hPa 0,0 l/m 9,7 km/h (2 Bft) S 180 2,9 C 1,6 C 9,7 km/h (2 Bft)
11.01.2014 19:15 5,5 C 83 % 1020,9 hPa 0,0 l/m 10,6 km/h (2 Bft) SO 135 2,8 C 0,7 C 8,9 km/h (2 Bft)
11.01.2014 19:20 5,3 C 83 % 1020,9 hPa 0,0 l/m 10,1 km/h (2 Bft) SO 135 2,7 C 1,0 C 10,9 km/h (2 Bft)
11.01.2014 19:25 5,2 C 83 % 1020,7 hPa 0,0 l/m 8,7 km/h (2 Bft) S-SO 157 2,6 C 2,2 C 9,2 km/h (2 Bft)
11.01.2014 19:30 5,2 C 83 % 1020,7 hPa 0,0 l/m 6,9 km/h (2 Bft) S-SO 157 2,6 C 3,9 C 6,6 km/h (2 Bft)
11.01.2014 19:35 5,2 C 84 % 1020,7 hPa 0,0 l/m 6,8 km/h (2 Bft) S 180 2,7 C 3,7 C 7,6 km/h (2 Bft)
11.01.2014 19:40 5,2 C 84 % 1020,7 hPa 0,0 l/m 7,1 km/h (2 Bft) S-SW 202 2,7 C 3,3 C 6,6 km/h (2 Bft)
11.01.2014 19:45 5,2 C 83 % 1020,6 hPa 0,0 l/m 7,1 km/h (2 Bft) O-SO 112 2,6 C 3,2 C 10,0 km/h (2 Bft)
11.01.2014 19:50 5,2 C 83 % 1020,6 hPa 0,0 l/m 6,0 km/h (2 Bft) O-NO 67 2,6 C 4,2 C 4,2 km/h (1 Bft)
11.01.2014 19:55 5,4 C 83 % 1020,6 hPa 0,0 l/m 6,1 km/h (2 Bft) SO 135 2,7 C 4,1 C 5,6 km/h (1 Bft)
11.01.2014 20:00 5,2 C 83 % 1020,6 hPa 0,0 l/m 5,6 km/h (1 Bft) NW 315 2,6 C 4,3 C 7,4 km/h (2 Bft)
11.01.2014 20:05 4,6 C 83 % 1020,8 hPa 0,0 l/m 3,7 km/h (1 Bft) O-SO 112 2,0 C 4,9 C 1,9 km/h (1 Bft)
11.01.2014 20:10 4,8 C 83 % 1020,8 hPa 0,0 l/m 1,8 km/h (1 Bft) NO 45 2,2 C 5,1 C 4,5 km/h (1 Bft)
11.01.2014 20:15 5,0 C 84 % 1020,8 hPa 0,0 l/m 2,1 km/h (1 Bft) O-NO 67 2,5 C 5,2 C 3,7 km/h (1 Bft)
11.01.2014 20:20 5,2 C 84 % 1020,8 hPa 0,0 l/m 3,7 km/h (1 Bft) SO 135 2,7 C 5,1 C 4,3 km/h (1 Bft)
11.01.2014 20:25 5,1 C 84 % 1020,6 hPa 0,0 l/m 3,7 km/h (1 Bft) O 90 2,6 C 5,1 C 6,4 km/h (2 Bft)
11.01.2014 20:30 5,2 C 83 % 1020,6 hPa 0,0 l/m 3,5 km/h (1 Bft) SO 135 2,6 C 5,3 C 5,0 km/h (1 Bft)
11.01.2014 20:35 5,4 C 83 % 1020,6 hPa 0,0 l/m 4,2 km/h (1 Bft) O 90 2,7 C 5,2 C 7,6 km/h (2 Bft)
11.01.2014 20:40 5,5 C 82 % 1020,6 hPa 0,0 l/m 5,5 km/h (1 Bft) S 180 2,7 C 5,1 C 6,3 km/h (2 Bft)
11.01.2014 20:45 5,4 C 82 % 1020,9 hPa 0,0 l/m 5,6 km/h (1 Bft) NO 45 2,6 C 5,0 C 6,6 km/h (2 Bft)
11.01.2014 20:50 5,7 C 81 % 1020,9 hPa 0,0 l/m 4,8 km/h (1 Bft) S-SO 157 2,7 C 5,3 C 6,9 km/h (2 Bft)
11.01.2014 20:55 5,5 C 81 % 1020,9 hPa 0,0 l/m 3,7 km/h (1 Bft) SO 135 2,5 C 5,8 C 6,4 km/h (2 Bft)
11.01.2014 21:00 5,2 C 81 % 1020,9 hPa 0,0 l/m 3,5 km/h (1 Bft) S 180 2,2 C 5,8 C 1,9 km/h (1 Bft)
11.01.2014 21:05 5,1 C 82 % 1021,6 hPa 0,0 l/m 4,0 km/h (1 Bft) SO 135 2,3 C 5,6 C 4,5 km/h (1 Bft)
11.01.2014 21:10 5,3 C 82 % 1021,6 hPa 0,0 l/m 5,0 km/h (1 Bft) S 180 2,5 C 5,3 C 7,4 km/h (2 Bft)
11.01.2014 21:15 5,5 C 82 % 1021,6 hPa 0,0 l/m 6,0 km/h (2 Bft) S 180 2,7 C 5,1 C 7,2 km/h (2 Bft)
11.01.2014 21:20 5,5 C 82 % 1021,6 hPa 0,0 l/m 6,6 km/h (2 Bft) O-SO 112 2,7 C 4,8 C 6,9 km/h (2 Bft)
11.01.2014 21:25 5,6 C 82 % 1021,2 hPa 0,0 l/m 6,6 km/h (2 Bft) S 180 2,8 C 4,8 C 6,6 km/h (2 Bft)
11.01.2014 21:30 5,5 C 81 % 1021,2 hPa 0,0 l/m 6,9 km/h (2 Bft) S 180 2,5 C 4,5 C 7,4 km/h (2 Bft)
11.01.2014 21:35 5,6 C 81 % 1021,2 hPa 0,0 l/m 6,8 km/h (2 Bft) W 270 2,6 C 4,6 C 5,0 km/h (1 Bft)
11.01.2014 21:40 5,5 C 82 % 1021,2 hPa 0,0 l/m 6,3 km/h (2 Bft) S-SO 157 2,7 C 5,1 C 12,7 km/h (3 Bft)
11.01.2014 21:45 5,7 C 82 % 1021,4 hPa 0,0 l/m 6,9 km/h (2 Bft) O 90 2,9 C 4,5 C 6,4 km/h (2 Bft)
11.01.2014 21:50 5,7 C 81 % 1021,4 hPa 0,0 l/m 7,1 km/h (2 Bft) S 180 2,7 C 4,2 C 10,3 km/h (2 Bft)
11.01.2014 21:55 5,6 C 82 % 1021,4 hPa 0,0 l/m 5,8 km/h (2 Bft) O 90 2,8 C 5,2 C 6,0 km/h (2 Bft)
11.01.2014 22:00 5,7 C 82 % 1021,4 hPa 0,0 l/m 6,6 km/h (2 Bft) S-SO 157 2,9 C 4,8 C 11,4 km/h (2 Bft)
11.01.2014 22:05 5,7 C 82 % 1021,8 hPa 0,0 l/m 7,1 km/h (2 Bft) SO 135 2,9 C 4,4 C 9,0 km/h (2 Bft)
11.01.2014 22:10 5,6 C 82 % 1021,8 hPa 0,0 l/m 6,9 km/h (2 Bft) S-SO 157 2,8 C 4,6 C 7,7 km/h (2 Bft)
11.01.2014 22:15 5,6 C 82 % 1021,8 hPa 0,0 l/m 6,6 km/h (2 Bft) S-SW 202 2,8 C 4,9 C 6,6 km/h (2 Bft)
11.01.2014 22:20 5,6 C 83 % 1021,8 hPa 0,0 l/m 6,8 km/h (2 Bft) O-NO 67 2,9 C 4,8 C 4,3 km/h (1 Bft)
11.01.2014 22:25 5,6 C 83 % 1021,9 hPa 0,0 l/m 6,9 km/h (2 Bft) S-SW 202 2,9 C 4,6 C 7,2 km/h (2 Bft)
11.01.2014 22:30 5,7 C 83 % 1021,9 hPa 0,0 l/m 6,9 km/h (2 Bft) SW 225 3,0 C 4,6 C 9,7 km/h (2 Bft)
11.01.2014 22:35 5,6 C 83 % 1021,9 hPa 0,0 l/m 7,4 km/h (2 Bft) S 180 2,9 C 4,0 C 10,0 km/h (2 Bft)
11.01.2014 22:40 5,7 C 84 % 1021,9 hPa 0,0 l/m 8,2 km/h (2 Bft) SO 135 3,2 C 3,0 C 20,3 km/h (4 Bft)
11.01.2014 22:45 5,7 C 84 % 1021,9 hPa 0,0 l/m 9,8 km/h (2 Bft) S 180 3,2 C 1,3 C 9,0 km/h (2 Bft)
11.01.2014 22:50 5,6 C 84 % 1021,9 hPa 0,0 l/m 9,5 km/h (2 Bft) S-SO 157 3,1 C 1,2 C 13,8 km/h (3 Bft)
11.01.2014 22:55 5,7 C 85 % 1021,9 hPa 0,0 l/m 9,7 km/h (2 Bft) S-SO 157 3,4 C 1,1 C 9,5 km/h (2 Bft)
11.01.2014 23:00 5,5 C 85 % 1021,9 hPa 0,0 l/m 8,9 km/h (2 Bft) S 180 3,2 C 1,9 C 8,4 km/h (2 Bft)
11.01.2014 23:05 5,6 C 85 % 1022,2 hPa 0,0 l/m 8,5 km/h (2 Bft) S 180 3,3 C 2,3 C 11,6 km/h (2 Bft)
11.01.2014 23:10 5,7 C 85 % 1022,2 hPa 0,0 l/m 8,9 km/h (2 Bft) S 180 3,4 C 2,0 C 6,4 km/h (2 Bft)
11.01.2014 23:15 5,5 C 85 % 1022,2 hPa 0,0 l/m 7,9 km/h (2 Bft) S-SO 157 3,2 C 3,1 C 14,0 km/h (3 Bft)
11.01.2014 23:20 5,5 C 85 % 1022,2 hPa 0,0 l/m 5,5 km/h (1 Bft) W 270 3,2 C 5,3 C 4,5 km/h (1 Bft)
11.01.2014 23:25 5,6 C 85 % 1022,4 hPa 0,0 l/m 5,5 km/h (1 Bft) S 180 3,3 C 5,2 C 6,1 km/h (2 Bft)
11.01.2014 23:30 5,7 C 85 % 1022,4 hPa 0,0 l/m 5,8 km/h (2 Bft) SO 135 3,4 C 4,9 C 6,9 km/h (2 Bft)
11.01.2014 23:35 5,7 C 85 % 1022,4 hPa 0,0 l/m 6,1 km/h (2 Bft) S-SO 157 3,4 C 4,9 C 7,6 km/h (2 Bft)
11.01.2014 23:40 5,5 C 85 % 1022,4 hPa 0,0 l/m 6,4 km/h (2 Bft) S-SW 202 3,2 C 4,8 C 2,7 km/h (1 Bft)
11.01.2014 23:45 5,4 C 85 % 1022,4 hPa 0,0 l/m 6,1 km/h (2 Bft) SO 135 3,1 C 4,9 C 5,0 km/h (1 Bft)
11.01.2014 23:50 5,4 C 85 % 1022,4 hPa 0,0 l/m 4,7 km/h (1 Bft) S 180 3,1 C 5,6 C 6,9 km/h (2 Bft)
11.01.2014 23:55 5,5 C 85 % 1022,4 hPa 0,0 l/m 4,7 km/h (1 Bft) S-SO 157 3,2 C 5,7 C 7,1 km/h (2 Bft)
_ Min-Zeit 05:55 16:45 07:40 - 13:15 - - 05:55 05:10 13:50
Minimum _ -0,4 C 74 % 1017,7 hPa - 0,0 km/h (0 Bft) - - -0,8 C -0,6 C 0,0 km/h (0 Bft)
_ Max-Zeit 13:55 08:10 23:55 23:55 19:15 - - 12:45 12:55 22:40
Maximum _ 8,1 C 98 % 1022,4 hPa 0,0 l/m 10,6 km/h
SO (2 Bft)
- - 6,7 C 10,5 C 20,3 km/h
SO (4 Bft)
Durchschnitt _ 3,9 C 90 % 1019,3 hPa #0,0 l/m 2,9 km/h (1 Bft) S - 2,4 C 3,8 C 3,7 km/h (1 Bft)